• Join FlightAware (Why Join?)
  • Login
  • US Flag 
10:36PM EDT


 

Airport Tracker/Info


-or-


 

Live Flight TrackerFlight Track Log ✈ UAL6057 ✈ 13-Oct-2013 ✈ KORD - KBNA

Flight Track Log - Related Links

Times and Time Zones

All times are in EDT time to prevent confusion due to time zone crossing. See the UAL6057 flight status page for this flight to view local times or setup timezone preferences in your user account.

Time Position Orientation Groundspeed Altitude Reporting Facility
EDT Latitude Longitude Course Direction KTS MPH feet Rate Location/Type
10:15PM 41.9000 -87.9167 190° South 200 230 3,600  Level Chicago TRACON
10:16PM 41.8500 -87.9000 166° South 259 298 5,600 2,700 Climbing Chicago TRACON
10:18PM 41.5961 -87.8191 186° South  Level Estimated
10:18PM 41.7286 -87.8992 180° South 279 321 10,100  Level Chicago Center
10:19PM 41.4997 -87.7974 180° South  Level Estimated
10:19PM 41.6414 -87.8922 177° South 293 337 12,700  Level Chicago Center
10:20PM 41.4033 -87.7757 180° South  Level Estimated
10:20PM 41.5519 -87.8869 177° South 316 364 14,200  Level Chicago Center
10:21PM 41.3059 -87.7989 190° South  Level FlightAware Approximate
10:21PM 41.4506 -87.8794 177° South 351 404 15,700  Level Chicago Center
10:22PM 41.3425 -87.8842 182° South 380 437 17,300 1,320 Climbing Chicago Center
10:23PM 41.2328 -87.8931 183° South 389 448 18,400 1,200 Climbing Chicago Center
10:24PM 41.1217 -87.8894 179° South 397 457 19,800 1,380 Climbing Chicago Center
10:25PM 41.0089 -87.8850 178° South 404 465 21,300 1,440 Climbing Chicago Center
10:26PM 40.8961 -87.8814 179° South 407 468 22,800 1,500 Climbing Chicago Center
10:27PM 40.7844 -87.8781 179° South 403 464 24,400 1,560 Climbing Chicago Center
10:28PM 40.6742 -87.8747 179° South 399 459 26,100 1,560 Climbing Chicago Center
10:29PM 40.5661 -87.8708 178° South 393 452 27,700 1,380 Climbing Chicago Center
10:30PM 40.4364 -87.8664 179° South 390 449 29,000 600 Climbing Chicago Center
10:31PM 40.3200 -87.8628 179° South 411 473 29,000 660 Level Chicago Center
10:32PM 40.1997 -87.8569 178° South 431 496 30,400 1,380 Climbing Chicago Center
10:33PM 40.1103 -87.8556 179° South 427 491 31,600 1,380 Climbing Indianapolis Center
10:34PM 39.9944 -87.8503 178° South 421 484 33,000 1,380 Climbing Indianapolis Center
10:35PM 39.8806 -87.8419 177° South 415 478 34,400 960 Climbing Indianapolis Center
10:36PM 39.7653 -87.8139 169° South 424 488 35,000 240 Climbing Indianapolis Center
10:37PM 39.6431 -87.7850 170° South 441 507 35,000  Level Indianapolis Center
10:38PM 39.4883 -87.7472 169° South 469 540 35,000  Level Indianapolis Center
10:39PM 39.3544 -87.7156 170° South 483 556 35,000  Level Indianapolis Center
10:40PM 39.2172 -87.6833 170° South 496 571 35,000  Level Indianapolis Center
10:41PM 39.0825 -87.6517 170° South 492 566 35,000  Level Indianapolis Center
10:42PM 38.9489 -87.6206 170° South 488 562 35,000  Level Indianapolis Center
10:43PM 38.8164 -87.5892 170° South 484 557 35,000  Level Indianapolis Center
10:44PM 38.6844 -87.5583 170° South 483 556 35,000  Level Indianapolis Center
10:45PM 38.5528 -87.5283 170° South 482 555 35,000  Level Indianapolis Center
10:46PM 38.4211 -87.4986 170° South 481 554 35,000  Level Indianapolis Center
10:47PM 38.2894 -87.4675 169° South 486 559 35,000  Level Indianapolis Center
10:48PM 38.1567 -87.4375 170° South 487 560 35,000 -900 Level Indianapolis Center
10:49PM 38.0219 -87.4053 169° South 495 570 33,300 -2,100 Descending Indianapolis Center
10:50PM 37.8903 -87.3753 170° South 484 557 30,800 -2,700 Descending Indianapolis Center
10:51PM 37.7406 -87.3419 170° South 473 544 27,900 -2,700 Descending Indianapolis Center
10:52PM 37.6161 -87.3125 169° South 463 533 25,400 -2,400 Descending Indianapolis Center
10:53PM 37.4950 -87.2886 171° South 438 504 23,100 -1,200 Descending Indianapolis Center
10:54PM 37.3786 -87.2639 170° South 421 484 23,000 -60 Descending Indianapolis Center
10:55PM 37.2597 -87.2278 166° South 433 498 23,000 -240 Level Indianapolis Center
10:56PM 37.1372 -87.1906 166° South 447 514 22,600 -1,200 Descending Indianapolis Center
10:57PM 37.0244 -87.1347 158° South 432 497 20,700 -1,980 Descending Indianapolis Center
10:58PM 36.9144 -87.0772 157° South 426 490 18,700 -1,860 Descending Indianapolis Center
10:59PM 36.8064 -87.0231 158° South 415 478 17,000 -1,980 Descending Indianapolis Center
11:00PM 36.7042 -86.9703 158° South 398 458 14,800 -2,220 Descending Indianapolis Center
11:01PM 36.6044 -86.9194 158° South 386 444 12,600 -1,920 Descending Indianapolis Center
11:02PM 36.5089 -86.8708 158° South 371 427 11,000 -840 Descending Indianapolis Center
11:03PM 36.4125 -86.8225 158° South 366 421 11,000 -60 Level Indianapolis Center
11:04PM 36.3125 -86.7722 158° South 369 425 10,900 -780 Descending Indianapolis Center
11:05PM 36.2142 -86.7403 165° South 329 379 9,400 -1,740 Descending Memphis Center
11:06PM 36.1419 -86.7692 198° South 279 321 7,100 -2,460 Descending Memphis Center
11:07PM 36.0803 -86.7950 199° South 273 314 4,500 -2,100 Descending Memphis Center
11:08PM 36.0142 -86.8208 198° South 262 302 3,000 -900 Descending Memphis Center
11:09PM 35.9936 -86.7575 112° Southeast 178 205 2,700 -360 Descending Memphis Center
11:10PM 36.0344 -86.7200 37° Northeast 135 155 2,300 -600 Descending Memphis Center
11:11PM 36.0672 -86.7056 20° North 123 142 1,600 -660 Descending Memphis Center
11:12PM 36.1003 -86.6939 16° North 123 142 1,000 -480 Descending Memphis Center
11:13PM 36.1314 -86.6847 13° North 118 136 700 -300 Descending Memphis Center